Location: Tel Aviv
(32.0670°N, 34.7670°E)
Time: 12:56:00
(UTC+03:00)

Explorer 11/Cluster Stage 4 - Pass Details

Date: 15 September 2024
Orbit: 464 x 1208 km, 28.8° (Epoch: 05 October)

Event Time Altitude Azimuth Distance (km) Brightness Sun altitude
Rises 13:52:46 0° 266° (W) 4,105 10.6 55.6°
Reaches altitude 10° 13:57:16 10° 244° (WSW) 3,094 10.3 55.0°
Maximum altitude 14:01:07 15° 214° (SW) 2,688 10.2 54.5°
Drops below altitude 10° 14:04:49 10° 184° (S) 2,918 10.1 54.0°
Sets 14:08:52 0° 161° (SSE) 3,729 10.3 53.4°
